Regional Weather Roundup
Issued by NWS Green Bay, WI

Current Version | Previous Version | Text Only | Print | Product List | Glossary On
Versions: 1 2 3 4 5 6 7 8 9 10 11 12 13 14 15 16 17 18 19 20 21 22 23 24 25 26 27 28 29 30 31 32 33 34 35 36 37 38 39 40 41 42 43 44 45 46 47 48 49 50
237
ASUS43 KGRB 210111
RWRGRB

NORTH-CENTRAL AND NORTHEAST WISCONSIN REGIONAL WEATHER ROUNDUP
NATIONAL WEATHER SERVICE GREEN BAY WI
800 PM CDT TUE AUG 20 2019

WIZ005-009-010>012-018-019-210200-
NORTH CENTRAL WISCONSIN

CITY           SKY/WX    TMP DP  RH WIND       PRES   REMARKS
IRONWOOD       MOCLDY    70  65  84 NW3       29.93S
MANITOWISH WTR MOCLDY    68  66  94 CALM      29.95S
ARBOR VITAE    CLOUDY    72  65  78 CALM      29.95R
EAGLE RIVER    FAIR      65  61  86 CALM      29.94F
LAND O LAKES   FAIR      66  62  86 CALM      29.96F
RHINELANDER    CLOUDY    69  63  81 W3        29.95S
PHILLIPS       MOCLDY    68  67  96 CALM      29.95R
ANTIGO         FAIR      68  62  79 W3        29.95S
TOMAHAWK       MOCLDY    68  62  79 CALM      29.96R
MERRILL        MOCLDY    71  64  76 CALM      29.95S
$$

WIZ013-073-210200-
NORTHEAST WISCONSIN

CITY           SKY/WX    TMP DP  RH WIND       PRES   REMARKS
IRON MOUNTAIN  FAIR      71  61  70 CALM      29.91S
MARINETTE      FAIR      74  66  76 CALM      29.90F
OCONTO         FAIR      72  67  87 CALM      29.89S
$$

WIZ017-030-035>037-045-210200-
CENTRAL WISCONSIN

CITY           SKY/WX    TMP DP  RH WIND       PRES   REMARKS
MEDFORD        FAIR      67  63  85 CALM      29.95S
WAUSAU         FAIR      71  63  75 W6        29.93R
MOSINEE        PTCLDY    70  63  78 SW5       29.96S
MARSHFIELD     FAIR      69  64  84 SW6       29.95S
WISC RAPIDS    FAIR      72  65  78 CALM      29.95R
STEVENS POINT  FAIR      72  63  72 W3        29.96R
WAUPACA        FAIR      78  66  66 W3        29.93S
SHAWANO        FAIR      77  68  74 W3        29.91S
CLINTONVILLE   FAIR      75  65  70 W5        29.91S
WAUTOMA        FAIR      74  68  81 CALM      29.93S
$$

WIZ038-039-048-051-210200-
FOX VALLEY

CITY           SKY/WX    TMP DP  RH WIND       PRES   REMARKS
NWS GREEN BAY  FAIR      77  69  76 SW5       29.90F
APPLETON       PTCLDY    75  63  64 W6        29.91S
OSHKOSH        FAIR      76  67  73 CALM      29.93R
FOND DU LAC    FAIR      78  69  73 SW3       29.93R
$$

WIZ022-050-052-210200-
EAST CENTRAL WISCONSIN

CITY           SKY/WX    TMP DP  RH WIND       PRES   REMARKS
EPHRAIM        FAIR      70  65  84 CALM      29.90S
WASHINGTON ISL CLOUDY    67  65  93 CALM      29.90S
STURGEON BAY   FAIR      72  68  87 S5        29.91S
MANITOWOC      FAIR      72  69  90 CALM      29.93R
SHEBOYGAN      FAIR      72  69  90 W3        29.93R
$$

LMZ563-521-522-541>543-210200-
LAKESHORE

STATION/POSITION TIME  TEMP    WIND        PRES    VSBY  WAVE
                       AIR SEA DIR/SP/G                  HT/PER
                 (UTC) (F)     (DEG/KT/KT) (MB)    (MI)  (FT/S)
SHEBOYGAN LKSHOR 0100   75     280/  3/  4 1013.3R
KEWAUNEE LKSHORE 0024   69     190/  7/  9 1012.1
NORTHPORT PIER   0040   72        CALM     1011.9F
N MID LAKE BUOY  0050   71 70  230/  8/ 10 1012.7F         1
S GREEN BAY BUOY 0030   80 74  230/  4/  6 1012.6F
SISTER BAY LKSHO 0026   76        CALM       N/A
MENOMINEE LKSHOR 0024   74 63  190/  4/  5 1012.0
$$




USA.gov is the U.S. government's official web portal to all federal, state and local government web resources and services.